FW2156 Weather Reports


Display with metric or nautical units.
time (UTC)temp
F
wind
direction
speed
MPH
gust
MPH
rain 1hr
in
rain 24hr
in
rain mn
in
humidity
%
barometer
mb
20260510204442 68 100 1.0 2.0 0.00 0.00 0.00 37 1007.8
20260510203938 68 175 0.0 0.0 0.00 0.00 0.00 37 1008.1
20260510203438 68 188 0.0 1.0 0.00 0.00 0.00 37 1007.8
20260510202939 68 95 0.0 0.0 0.00 0.00 0.00 37 1008.1
20260510202442 69 209 1.0 1.0 0.00 0.00 0.00 36 1008.1
20260510201942 69 193 0.0 0.0 0.00 0.00 0.00 35 1008.5
20260510201443 69 278 0.0 0.0 0.00 0.00 0.00 34 1008.1
20260510200939 69 261 2.0 2.0 0.00 0.00 0.00 34 1008.1
20260510200439 69 214 0.0 1.0 0.00 0.00 0.00 35 1008.5
20260510195940 68 176 0.0 1.0 0.00 0.00 0.00 35 1008.5
20260510195441 68 128 0.0 0.0 0.00 0.00 0.00 35 1008.8
20260510194936 68 102 2.0 3.0 0.00 0.00 0.00 37 1008.5
20260510194439 68 115 2.0 2.0 0.00 0.00 0.00 36 1008.5
20260510193939 67 255 2.0 3.0 0.00 0.00 0.00 36 1008.5
20260510193441 67 253 1.0 2.0 0.00 0.00 0.00 37 1008.8
20260510192941 67 104 1.0 1.0 0.00 0.00 0.00 38 1008.8
20260510192443 66 358 1.0 1.0 0.00 0.00 0.00 38 1008.8
20260510191943 66 163 0.0 0.0 0.00 0.00 0.00 40 1008.8
20260510191412 66 78 1.0 1.0 0.00 0.00 0.00 40 1008.8
20260510190912 66 108 1.0 1.0 0.00 0.00 0.00 41 1008.8
20260510190414 66 135 0.0 0.0 0.00 0.00 0.00 40 1009.1
20260510185842 65 237 0.0 1.0 0.00 0.00 0.00 40 1009.1
20260510185340 65 177 0.0 0.0 0.00 0.00 0.00 41 1009.1
20260510184839 65 109 0.0 0.0 0.00 0.00 0.00 42 1009.1
20260510184338 65 235 0.0 0.0 0.00 0.00 0.00 42 1009.1
20260510183839 65 341 1.0 1.0 0.00 0.00 0.00 41 1009.5
20260510183335 64 267 2.0 2.0 0.00 0.00 0.00 40 1009.1
20260510182839 64 233 0.0 1.0 0.00 0.00 0.00 41 1009.1
20260510182338 64 189 0.0 1.0 0.00 0.00 0.00 44 1009.5
20260510181838 63 204 0.0 0.0 0.00 0.00 0.00 46 1009.5
20260510181336 63 105 1.0 1.0 0.00 0.00 0.00 46 1009.5
20260510180840 63 157 0.0 0.0 0.00 0.00 0.00 46 1009.5
20260510180339 63 233 0.0 0.0 0.00 0.00 0.00 46 1009.8
20260510175814 63 193 0.0 0.0 0.00 0.00 0.00 47 1009.5
20260510175313 63 191 1.0 2.0 0.00 0.00 0.00 47 1009.5
20260510174812 63 75 0.0 1.0 0.00 0.00 0.00 48 1009.8
20260510174312 63 315 1.0 2.0 0.00 0.00 0.00 46 1009.8
20260510173812 63 255 0.0 1.0 0.00 0.00 0.00 43 1009.8
20260510173311 63 242 0.0 1.0 0.00 0.00 0.00 45 1009.8
20260510172811 63 240 0.0 0.0 0.00 0.00 0.00 43 1009.8
20260510172312 63 238 0.0 0.0 0.00 0.00 0.00 43 1009.8
20260510171813 62 240 0.0 0.0 0.00 0.00 0.00 44 1009.8
20260510171312 62 246 0.0 0.0 0.00 0.00 0.00 44 1009.8
20260510170815 62 236 0.0 1.0 0.00 0.00 0.00 44 1009.8
20260510170312 63 203 0.0 0.0 0.00 0.00 0.00 44 1010.2
20260510165812 63 251 1.0 1.0 0.00 0.00 0.00 44 1010.2
20260510165241 63 276 2.0 2.0 0.00 0.00 0.00 44 1009.8
20260510164742 63 257 2.0 2.0 0.00 0.00 0.00 43 1009.8
20260510164237 63 251 4.0 5.0 0.00 0.00 0.00 43 1010.2
20260510163738 63 290 2.0 2.0 0.00 0.00 0.00 43 1009.8
20260510163245 63 226 0.0 1.0 0.00 0.00 0.00 43 1010.2
20260510162741 63 236 1.0 1.0 0.00 0.00 0.00 43 1010.2
20260510162242 63 229 2.0 3.0 0.00 0.00 0.00 42 1010.2
20260510161739 63 224 0.0 0.0 0.00 0.00 0.00 44 1010.2
20260510161238 63 224 0.0 0.0 0.00 0.00 0.00 42 1010.2
20260510160744 63 270 1.0 2.0 0.00 0.00 0.00 42 1010.2
20260510160237 63 232 1.0 1.0 0.00 0.00 0.00 42 1010.2
20260510155740 62 249 2.0 2.0 0.00 0.00 0.00 42 1010.2
20260510155237 61 309 3.0 3.0 0.00 0.00 0.00 41 1010.2
20260510154742 60 244 0.0 0.0 0.00 0.00 0.00 42 1010.2
20260510154235 59 216 0.0 0.0 0.00 0.00 0.00 43 1010.2
20260510153739 59 234 0.0 1.0 0.00 0.00 0.00 45 1010.2
20260510153237 58 234 1.0 1.0 0.00 0.00 0.00 47 1010.2
20260510152739 57 278 2.0 2.0 0.00 0.00 0.00 51 1010.2
20260510152213 57 239 1.0 1.0 0.00 0.00 0.00 53 1010.2
20260510151712 56 257 0.0 1.0 0.00 0.00 0.00 52 1010.2
20260510151214 55 248 0.0 0.0 0.00 0.00 0.00 51 1010.2
20260510150712 55 248 0.0 0.0 0.00 0.00 0.00 50 1010.2
20260510150212 54 230 0.0 1.0 0.00 0.00 0.00 55 1010.2
20260510145716 54 231 0.0 1.0 0.00 0.00 0.00 55 1010.2
20260510145213 53 231 0.0 0.0 0.00 0.00 0.00 55 1010.2
20260510144713 53 230 0.0 0.0 0.00 0.00 0.00 55 1010.2
20260510144210 52 238 0.0 0.0 0.00 0.00 0.00 58 1010.2
20260510143713 52 220 0.0 0.0 0.00 0.00 0.00 58 1010.2
20260510143212 51 250 0.0 0.0 0.00 0.00 0.00 59 1010.2
20260510142714 51 275 1.0 1.0 0.00 0.00 0.00 59 1010.2
20260510142211 51 234 0.0 0.0 0.00 0.00 0.00 60 1010.2
20260510141713 50 235 0.0 0.0 0.00 0.00 0.00 61 1010.2
20260510141215 50 255 0.0 0.0 0.00 0.00 0.00 62 1010.2
20260510140715 49 17 0.0 0.0 0.00 0.00 0.00 62 1010.2
20260510140213 49 237 0.0 1.0 0.00 0.00 0.00 63 1010.2
20260510135712 49 236 0.0 1.0 0.00 0.00 0.00 65 1010.2
20260510135211 48 260 0.0 1.0 0.00 0.00 0.00 66 1010.5
20260510134714 48 222 0.0 0.0 0.00 0.00 0.00 67 1010.2
20260510134214 48 278 0.0 1.0 0.00 0.00 0.00 67 1010.5
20260510133713 48 228 0.0 0.0 0.00 0.00 0.00 68 1010.2
20260510133211 48 203 0.0 0.0 0.00 0.00 0.00 69 1010.2
20260510132716 48 276 0.0 0.0 0.00 0.00 0.00 69 1010.5
20260510132214 48 238 0.0 0.0 0.00 0.00 0.00 69 1010.2
20260510131714 47 243 0.0 0.0 0.00 0.00 0.00 68 1010.2
20260510131215 47 260 0.0 1.0 0.00 0.00 0.00 67 1010.2
20260510130713 47 261 1.0 1.0 0.00 0.00 0.00 70 1010.5
20260510130213 47 247 0.0 1.0 0.00 0.00 0.00 70 1010.5
20260510125714 47 275 1.0 1.0 0.00 0.00 0.00 70 1010.5
20260510125213 47 242 0.0 1.0 0.00 0.00 0.00 70 1010.2
20260510124715 47 250 0.0 1.0 0.00 0.00 0.00 69 1010.5
20260510124214 47 290 1.0 2.0 0.00 0.00 0.00 70 1010.5
20260510123714 47 264 0.0 1.0 0.00 0.00 0.00 69 1010.5
20260510123146 47 272 1.0 1.0 0.00 0.00 0.00 65 1010.5
20260510122645 47 240 1.0 1.0 0.00 0.00 0.00 69 1010.5
20260510122142 47 171 0.0 0.0 0.00 0.00 0.00 72 1010.5
20260510121643 47 172 0.0 0.0 0.00 0.00 0.00 68 1010.5
20260510121145 47 213 0.0 0.0 0.00 0.00 0.00 66 1010.5
20260510120641 47 234 0.0 0.0 0.00 0.00 0.00 69 1010.8
20260510120141 47 234 0.0 0.0 0.00 0.00 0.00 69 1010.5
20260510115642 47 234 0.0 0.0 0.00 0.00 0.00 69 1010.5
20260510115143 47 234 0.0 1.0 0.00 0.00 0.00 69 1010.5
20260510114643 47 233 0.0 0.0 0.00 0.00 0.00 71 1010.8
20260510114142 47 249 0.0 1.0 0.00 0.00 0.00 72 1010.8
20260510113641 48 249 1.0 1.0 0.00 0.00 0.00 72 1010.8
20260510113141 48 244 0.0 0.0 0.00 0.00 0.00 73 1010.8
20260510112641 48 244 0.0 0.0 0.00 0.00 0.00 72 1010.8
20260510112142 48 244 0.0 0.0 0.00 0.00 0.00 70 1010.8
20260510111640 48 233 0.0 0.0 0.00 0.00 0.00 69 1010.8
20260510111138 48 239 1.0 1.0 0.00 0.00 0.00 69 1010.8
20260510110640 48 243 0.0 0.0 0.00 0.00 0.00 68 1011.2
20260510110142 48 240 0.0 1.0 0.00 0.00 0.00 68 1011.2
20260510105639 48 233 0.0 0.0 0.00 0.00 0.00 70 1010.8
20260510105138 48 239 0.0 1.0 0.00 0.00 0.00 69 1011.5
20260510104638 48 220 0.0 0.0 0.00 0.00 0.00 69 1011.2
20260510104140 48 235 0.0 0.0 0.00 0.00 0.00 69 1011.2
20260510103640 47 225 0.0 0.0 0.00 0.00 0.00 70 1011.2
20260510103138 48 211 0.0 0.0 0.00 0.00 0.00 72 1011.2
20260510102638 48 210 0.0 0.0 0.00 0.00 0.00 73 1011.2
20260510102139 48 210 0.0 0.0 0.00 0.00 0.00 73 1011.5
20260510101640 48 210 0.0 0.0 0.00 0.00 0.00 73 1011.2
20260510101140 48 240 0.0 0.0 0.00 0.00 0.00 73 1011.5
20260510100638 48 250 1.0 1.0 0.00 0.00 0.00 74 1011.5
20260510100137 48 242 0.0 1.0 0.00 0.00 0.00 74 1011.5
20260510095639 48 253 0.0 1.0 0.00 0.00 0.00 73 1011.5
20260510095137 48 248 0.0 1.0 0.00 0.00 0.00 74 1011.5
20260510094641 48 247 0.0 1.0 0.00 0.00 0.00 73 1011.5
20260510094137 48 258 1.0 1.0 0.00 0.00 0.00 72 1011.5
20260510093638 49 272 0.0 1.0 0.00 0.00 0.00 74 1011.5
20260510093137 49 224 0.0 0.0 0.00 0.00 0.00 74 1011.5
20260510092639 49 222 0.0 0.0 0.00 0.00 0.00 73 1011.2
20260510092136 49 215 0.0 0.0 0.00 0.00 0.00 73 1011.5
20260510091639 49 193 0.0 0.0 0.00 0.00 0.00 72 1011.5
20260510091136 49 239 0.0 0.0 0.00 0.00 0.00 72 1011.5
20260510090635 49 233 0.0 0.0 0.00 0.00 0.00 72 1011.5
20260510090138 48 247 1.0 1.0 0.00 0.00 0.00 71 1011.9
20260510085635 48 239 1.0 1.0 0.00 0.00 0.00 71 1011.9
20260510085138 48 261 1.0 1.0 0.00 0.00 0.00 71 1011.9
20260510084636 48 255 1.0 1.0 0.00 0.00 0.00 71 1011.9
20260510084136 48 261 0.0 1.0 0.00 0.00 0.00 72 1011.9
20260510083636 49 190 0.0 0.0 0.00 0.00 0.00 72 1011.9
20260510083136 49 194 0.0 0.0 0.00 0.00 0.00 71 1011.9
20260510082635 49 211 0.0 0.0 0.00 0.00 0.00 71 1011.9
20260510082135 49 183 0.0 0.0 0.00 0.00 0.00 70 1012.2
20260510081635 49 205 0.0 0.0 0.00 0.00 0.00 70 1012.2
20260510081135 50 158 0.0 0.0 0.00 0.00 0.00 69 1012.2
20260510080634 50 142 0.0 0.0 0.00 0.00 0.00 69 1012.2
20260510080136 50 155 0.0 0.0 0.00 0.00 0.00 68 1012.2
20260510075634 50 159 0.0 0.0 0.00 0.00 0.00 67 1012.2
20260510075133 50 139 0.0 1.0 0.00 0.00 0.00 67 1012.2
20260510074634 50 140 0.0 1.0 0.00 0.00 0.00 67 1012.5
20260510074135 51 141 0.0 0.0 0.00 0.00 0.00 66 1012.5
20260510073634 51 145 0.0 1.0 0.00 0.00 0.00 66 1012.5
20260510073133 51 157 0.0 0.0 0.00 0.00 0.00 66 1012.5
20260510072632 51 157 0.0 0.0 0.00 0.00 0.00 65 1012.5
20260510072133 51 163 0.0 0.0 0.00 0.00 0.00 65 1012.9
20260510071634 52 159 0.0 0.0 0.00 0.00 0.00 65 1012.9
20260510071135 52 158 0.0 0.0 0.00 0.00 0.00 65 1012.9
20260510070633 52 160 0.0 0.0 0.00 0.00 0.00 65 1012.5
20260510070131 52 163 0.0 0.0 0.00 0.00 0.00 64 1012.5
20260510065631 52 222 0.0 0.0 0.00 0.00 0.00 64 1012.9
20260510065131 53 149 0.0 0.0 0.00 0.00 0.00 63 1012.9
20260510064633 53 152 0.0 0.0 0.00 0.00 0.00 63 1012.9
20260510064132 53 151 0.0 0.0 0.00 0.00 0.00 63 1012.9
20260510063631 53 143 0.0 0.0 0.00 0.00 0.00 62 1012.9
20260510063130 54 173 0.0 0.0 0.00 0.00 0.00 62 1012.9
20260510062633 54 133 0.0 1.0 0.00 0.00 0.00 61 1012.9
20260510062132 54 130 0.0 1.0 0.00 0.00 0.00 61 1012.9
20260510061635 55 152 0.0 0.0 0.00 0.00 0.00 60 1012.9
20260510061131 55 114 1.0 2.0 0.00 0.00 0.00 60 1013.2
20260510060631 55 135 0.0 1.0 0.00 0.00 0.00 59 1013.2
20260510060132 56 146 0.0 0.0 0.00 0.00 0.00 60 1012.9
20260510055632 56 154 0.0 0.0 0.00 0.00 0.00 59 1012.9
20260510055130 56 166 0.0 0.0 0.00 0.00 0.00 59 1013.2
20260510054631 57 222 0.0 0.0 0.00 0.00 0.00 57 1013.2
20260510054036 57 244 0.0 1.0 0.00 0.00 0.00 57 1013.2
20260510053534 57 217 0.0 0.0 0.00 0.00 0.00 56 1013.5
20260510053030 57 138 0.0 0.0 0.00 0.00 0.00 56 1013.5
20260510052532 57 110 0.0 0.0 0.00 0.00 0.00 56 1013.5
20260510052031 57 105 1.0 2.0 0.00 0.00 0.00 55 1013.2
20260510051530 57 105 0.0 1.0 0.00 0.00 0.00 55 1013.5
20260510051031 57 101 0.0 1.0 0.00 0.00 0.00 55 1013.5
20260510050529 57 111 0.0 1.0 0.00 0.00 0.00 56 1013.5
20260510050031 57 161 0.0 0.0 0.00 0.00 0.00 56 1013.5
20260510045529 57 154 0.0 0.0 0.00 0.00 0.00 57 1013.5
20260510045029 57 198 0.0 1.0 0.00 0.00 0.00 56 1013.5
20260510044529 58 121 0.0 1.0 0.00 0.00 0.00 56 1013.5
20260510044029 58 163 0.0 0.0 0.00 0.00 0.00 57 1013.5
20260510043530 58 179 0.0 0.0 0.00 0.00 0.00 56 1013.5
20260510043029 59 146 0.0 0.0 0.00 0.00 0.00 56 1013.5
20260510042530 59 146 0.0 0.0 0.00 0.00 0.00 55 1013.5
20260510042029 59 155 0.0 0.0 0.00 0.00 0.00 55 1013.5
20260510041529 59 152 0.0 0.0 0.00 0.00 0.00 55 1013.2
20260510041027 59 144 0.0 0.0 0.00 0.00 0.00 55 1013.5
20260510040528 60 123 0.0 1.0 0.00 0.00 0.00 55 1013.2
20260510040030 60 142 0.0 0.0 0.00 0.00 0.00 54 1013.5
20260510035527 60 155 0.0 0.0 0.00 0.00 0.00 54 1013.5
20260510035027 60 113 3.0 3.0 0.00 0.00 0.00 54 1013.2
20260510034530 61 135 0.0 0.0 0.00 0.00 0.00 54 1013.2
20260510034027 61 133 0.0 0.0 0.00 0.00 0.00 53 1013.2
20260510033526 61 129 0.0 1.0 0.00 0.00 0.00 53 1013.5
20260510033027 61 124 0.0 0.0 0.00 0.00 0.00 52 1013.2
20260510032526 62 148 0.0 0.0 0.00 0.00 0.00 53 1013.2
20260510032029 62 134 0.0 1.0 0.00 0.00 0.00 52 1013.2
20260510031529 62 140 0.0 0.0 0.00 0.00 0.00 51 1013.2
20260510031026 62 139 0.0 0.0 0.00 0.00 0.00 51 1013.2
20260510030528 63 124 0.0 1.0 0.00 0.00 0.00 50 1012.9
20260510030026 63 90 0.0 1.0 0.00 0.00 0.00 50 1012.9
20260510025526 63 141 1.0 1.0 0.00 0.00 0.00 50 1012.9
20260510025027 64 174 1.0 2.0 0.00 0.00 0.00 50 1012.9
20260510024539 64 124 0.0 1.0 0.00 0.00 0.00 50 1013.2
20260510024041 64 123 1.0 1.0 0.00 0.00 0.00 49 1012.9
20260510023535 64 197 0.0 1.0 0.00 0.00 0.00 49 1012.9
20260510023040 65 167 1.0 1.0 0.00 0.00 0.00 49 1013.2
20260510022539 65 194 0.0 0.0 0.00 0.00 0.00 48 1012.9
20260510022037 65 117 0.0 1.0 0.00 0.00 0.00 48 1013.2
20260510021538 65 162 1.0 2.0 0.00 0.00 0.00 48 1012.9
20260510021037 66 105 2.0 2.0 0.00 0.00 0.00 47 1013.2
20260510020539 66 221 0.0 1.0 0.00 0.00 0.00 47 1012.9
20260510020037 66 108 4.0 6.0 0.00 0.00 0.00 47 1012.9
20260510015539 66 95 2.0 2.0 0.00 0.00 0.00 47 1012.9
20260510015024 66 150 0.0 0.0 0.00 0.00 0.00 46 1012.9
20260510014524 66 192 0.0 1.0 0.00 0.00 0.00 47 1012.9
20260510014026 66 98 2.0 2.0 0.00 0.00 0.00 46 1012.9
20260510013522 66 107 0.0 0.0 0.00 0.00 0.00 46 1012.9
20260510013025 66 113 0.0 1.0 0.00 0.00 0.00 47 1012.9
20260510012522 67 114 1.0 1.0 0.00 0.00 0.00 46 1012.9
20260510012024 67 66 1.0 2.0 0.00 0.00 0.00 46 1013.2
20260510011524 67 197 0.0 1.0 0.00 0.00 0.00 46 1012.9
20260510011023 67 136 1.0 2.0 0.00 0.00 0.00 46 1013.2
20260510010524 68 103 0.0 1.0 0.00 0.00 0.00 46 1013.2
20260510010022 68 132 0.0 1.0 0.00 0.00 0.00 45 1012.9
20260510005522 68 166 1.0 1.0 0.00 0.00 0.00 46 1013.2
20260510005022 68 138 0.0 1.0 0.00 0.00 0.00 44 1013.2
20260510004522 68 217 0.0 1.0 0.00 0.00 0.00 43 1012.9
20260510004021 68 156 0.0 1.0 0.00 0.00 0.00 44 1013.2
20260510003522 68 272 1.0 2.0 0.00 0.00 0.00 43 1013.2
20260510003022 68 117 1.0 2.0 0.00 0.00 0.00 45 1013.2
20260510002524 68 156 1.0 1.0 0.00 0.00 0.00 46 1013.2
20260510002021 69 123 1.0 2.0 0.00 0.00 0.00 44 1013.2
20260510001521 68 214 0.0 1.0 0.00 0.00 0.00 42 1013.2
20260510001020 68 196 0.0 1.0 0.00 0.00 0.00 43 1013.2
20260510000519 68 168 0.0 1.0 0.00 0.00 0.00 43 1013.2
20260510000023 68 289 1.0 2.0 0.00 0.00 0.00 44 1013.2
20260509235519 67 219 0.0 1.0 0.00 0.00 0.00 43 1012.9
20260509235020 67 128 0.0 0.0 0.00 0.00 0.00 43 1012.9
20260509234520 67 95 1.0 2.0 0.00 0.00 0.00 45 1013.2
20260509234021 67 117 1.0 1.0 0.00 0.00 0.00 44 1012.9
20260509233520 67 178 0.0 0.0 0.00 0.00 0.00 44 1013.2
20260509233019 67 185 0.0 1.0 0.00 0.00 0.00 45 1013.2
20260509232522 67 103 1.0 1.0 0.00 0.00 0.00 45 1012.9
20260509232019 67 90 1.0 2.0 0.00 0.00 0.00 46 1013.2
20260509231442 67 221 0.0 0.0 0.00 0.00 0.00 45 1013.2
20260509230940 67 143 0.0 0.0 0.00 0.00 0.00 45 1013.2
20260509230438 67 243 0.0 1.0 0.00 0.00 0.00 44 1013.2
20260509225917 67 253 0.0 1.0 0.00 0.00 0.00 44 1013.2
20260509225418 66 169 0.0 0.0 0.00 0.00 0.00 45 1013.5
20260509224916 66 147 0.0 1.0 0.00 0.00 0.00 46 1013.2
20260509224417 65 115 2.0 3.0 0.00 0.00 0.00 46 1013.5
20260509223919 65 299 0.0 1.0 0.00 0.00 0.00 46 1013.5
20260509223417 64 310 0.0 1.0 0.00 0.00 0.00 46 1013.5
20260509222917 63 297 1.0 2.0 0.00 0.00 0.00 46 1013.5
20260509222426 63 347 2.0 3.0 0.00 0.00 0.00 47 1013.5
20260509221916 63 3 1.0 2.0 0.00 0.00 0.00 49 1013.5
20260509221415 63 263 1.0 1.0 0.00 0.00 0.00 50 1013.9
20260509220915 63 145 0.0 0.0 0.00 0.00 0.00 50 1013.9
20260509220415 63 148 1.0 2.0 0.00 0.00 0.00 50 1013.5
20260509215915 63 124 2.0 3.0 0.00 0.00 0.00 49 1013.5
20260509215417 63 246 0.0 0.0 0.00 0.00 0.00 49 1013.5
20260509214914 62 175 0.0 1.0 0.00 0.00 0.00 49 1013.5
20260509214414 62 103 0.0 1.0 0.00 0.00 0.00 49 1013.9
20260509213916 63 113 0.0 1.0 0.00 0.00 0.00 50 1013.9
20260509213343 63 106 3.0 3.0 0.00 0.00 0.00 50 1013.5
20260509212840 63 58 2.0 2.0 0.00 0.00 0.00 49 1013.5
20260509212321 64 271 3.0 3.0 0.00 0.00 0.00 49 1013.9
20260509211815 64 224 2.0 2.0 0.00 0.00 0.00 49 1013.9
20260509211240 64 320 3.0 3.0 0.00 0.00 0.00 48 1013.9
20260509210741 65 289 3.0 5.0 0.00 0.00 0.00 48 1013.9
20260509210240 65 222 0.0 1.0 0.00 0.00 0.00 47 1013.9
20260509205746 65 154 0.0 1.0 0.00 0.00 0.00 47 1013.9
20260509205237 65 211 0.0 0.0 0.00 0.00 0.00 46 1013.9